Regional Weather Roundup
Issued by NWS

Home | Current Version | Previous Version | Text Only | Print | Product List | Glossary On
Versions: 1 2 3 4 5 6 7 8 9 10 11 12 13 14 15 16 17 18 19 20 21 22 23 24 25 26 27 28 29 30 31 32 33 34 35 36 37 38 39 40 41 42 43 44 45 46 47 48 49 50
000
ASUS45 KABQ 290601
RWRNM
NEW MEXICO REGIONAL WEATHER ROUNDUP
NATIONAL WEATHER SERVICE ALBUQUERQUE NM
1200 AM MDT WED JUL 29 2015

NOTE: "FAIR" MEANS FEW OR NO CLOUDS BELOW 12,000 FEET AGL WITH NO
       SIGNIFICANT WEATHER OR OBSTRUCTIONS TO VISION.

      THIS PRODUCT IS RELEASED AS TWO VERSIONS.  ONE VERSION NEAR
      THE TOP OF THE HOUR CONTAINING PRELIMINARY DATA FROM ALBUQUERQUE
      AND OTHER STATIONS.  A FINAL VERSION WITH ADDITIONAL DATA IS
      ISSUED ABOUT 10 MINUTES AFTER THE HOUR.

NMZ501-503-504-510>518-290700-
NORTHWEST PLATEAU/NORTHCENTRAL MOUNTAINS

CITY           SKY/WX    TMP DP  RH WIND       PRES   REMARKS
FARMINGTON     CLEAR     68  23  18 N3        30.16R
6HR MIN TEMP:  68; 6HR MAX TEMP:  92;

SANTA FE       PTCLDY    68  50  52 S8        30.30R
6HR MIN TEMP:  68; 6HR MAX TEMP:  87; 6HR PCP: TRACE;

TAOS           MOCLDY    63  43  48 E8        30.36R

$$
NMZ402-403-502-505>509-290700-
WESTCENTRAL MOUNTAINS/SOUTHWEST MOUNTAINS

CITY           SKY/WX    TMP DP  RH WIND       PRES   REMARKS
GALLUP         CLOUDY    71  46  40 S3        30.28R
6HR MIN TEMP:  71; 6HR MAX TEMP:  87;

SILVER CITY      N/A     72  57  60 SE5       30.24R

$$
NMZ407-409-411-412-290700-
SOUTHERN DESERTS

CITY           SKY/WX    TMP DP  RH WIND       PRES   REMARKS
DEMING         MOCLDY    75  59  57 SE5       30.15R
6HR MIN TEMP:  74; 6HR MAX TEMP:  92; 6HR PCP: TRACE;

ALAMOGORDO     CLOUDY    73  63  68 N9        30.17R
T OR C         LGT RAIN  71  64  78 SW3       30.19R
6HR MIN TEMP:  70; 6HR MAX TEMP:  74; 6HR PCP:  0.05;


$$
NMZ519>523-290700-
CENTRAL VALLEYS/CENTRAL HIGHLANDS

CITY           SKY/WX    TMP DP  RH WIND       PRES   REMARKS
ALBUQUERQUE    CLOUDY    75  54  47 E15       30.22S
6HR MIN TEMP:  74; 6HR MAX TEMP:  91; 6HR PCP: TRACE;

DOUBLE EAGLE   CLOUDY    70  55  59 SE9       30.27S
MORIARTY ARPT    N/A     64  55  73 CALM      30.34S
6HR MIN TEMP:  63; 6HR MAX TEMP:  73;

CLINES CORNERS MOCLDY    60  54  80 NE3       30.37R
6HR MIN TEMP:  59; 6HR MAX TEMP:  70; 6HR PCP: TRACE;

BELEN          CLOUDY    74  55  51 SE15      30.23S
6HR MIN TEMP:  74; 6HR MAX TEMP:  87;

SOCORRO        NOT AVBL

$$
NMZ524>526-539-540-290700-
SOUTHCENTRAL MOUNTAINS

CITY           SKY/WX    TMP DP  RH WIND       PRES   REMARKS
RUIDOSO          N/A    N/A N/A N/A MISG        N/A

$$
NMZ527>531-290700-
NORTHEAST HIGHLANDS/NORTHEAST PLAINS

CITY           SKY/WX    TMP DP  RH WIND       PRES   REMARKS
LAS VEGAS      MOCLDY    58  54  86 E8        30.35F
6HR MIN TEMP:  57; 6HR MAX TEMP:  65; 6HR PCP:  0.09;

RATON          MOCLDY    61  53  75 W6        30.31F
6HR MIN TEMP:  60; 6HR MAX TEMP:  76;

CLAYTON        CLOUDY    66  60  81 NE5       30.27R
6HR MIN TEMP:  66; 6HR MAX TEMP:  75; 6HR PCP:  0.01;


$$
NMZ532>537-290700-
EASTCENTRAL PLAINS

CITY           SKY/WX    TMP DP  RH WIND       PRES   REMARKS
TUCUMCARI      CLOUDY    67  63  87 S6        30.18R
6HR MIN TEMP:  67; 6HR MAX TEMP:  71; 6HR PCP:  0.26;

CANNON AFB     NOT AVBL
CLOVIS AIRPORT CLOUDY    66  63  88 NW8       30.20R

$$
NMZ028-029-538-290700-
SOUTHEAST PLAINS

CITY           SKY/WX    TMP DP  RH WIND       PRES   REMARKS
ROSWELL        LGT RAIN  73  64  73 NW7       30.14R
6HR MIN TEMP:  73; 6HR MAX TEMP:  90; 6HR PCP: TRACE;

ARTESIA        DRIZZLE   73  66  78 N9        30.13R
CARLSBAD       TSTM      76  66  71 W9        30.12R
6HR MIN TEMP:  76; 6HR MAX TEMP: 103; 6HR PCP:  0.01;

HOBBS          MOCLDY    73  63  68 N15       30.13R


$$


USA.gov is the U.S. government's official web portal to all federal, state and local government web resources and services.